Location: Bord�res
(43.2000°N, 0.2167°W)
Time: 14:10:15
(UTC+00:00)

Nadezhda 3 Rocket - Pass Details

Date: 03 March 2021
Orbit: 957 x 999 km, 82.9° (Epoch: 12 April)

Event Time Altitude Azimuth Distance (km) Brightness Sun altitude
Rises 19:13:11 0° 349° (N) 3,725 7.3 -15.5°
Reaches altitude 10° 19:15:44 10° 347° (NNW) 2,774 6.6 -15.9°
Maximum altitude 19:22:02 66° 267° (W) 1,085 4.5 -17.1°
Drops below altitude 10° 19:28:18 10° 186° (S) 2,758 6.3 -18.2°
Sets 19:30:50 0° 184° (S) 3,701 7.0 -18.6°
